Date String (YYYY-MM-DD hh:mm:ss) UTC,Instrument flags,Ambient pressure (hPa),Sample flow (lpm),Bypass flow (lpm),Sample temperature (°C),Ambient temperature (°C),ASC tube jacket temperature (°C),LED temperature (°C),Box temperature (°C),Sample RH (%),Span deviation,Mass concentration (μg/m³),Mass concentration (μg/m³),Mass concentration (μg/m³)
DateTimeUTC,F1_M11,P_M11,Q1_M11,Q2_M11,T1_M11,T2_M11,T3_M11,T4_M11,T5_M11,U1_M11,ZSPAN_M11,X2_M11,X0_M11,X1_M11
2022-07-08 10:00:00,,0833.5,5.00,0.00,29.9,28.5,00.0,38.8,31.8,28.5,0000.0,0003.75,0008.16,0003.28
2022-07-08 10:01:00,,0833.4,5.00,0.00,29.9,28.6,00.0,38.8,31.8,28.6,0000.0,0003.79,0008.52,0003.28
2022-07-08 10:02:00,,0833.4,4.99,0.00,29.9,28.6,00.0,38.8,31.8,28.7,0000.0,0003.78,0008.86,0003.29
2022-07-08 10:03:00,,0833.4,5.00,0.00,29.9,28.7,00.0,38.8,31.9,28.6,0000.0,0003.74,0008.74,0003.30
2022-07-08 10:04:00,,0833.4,4.99,0.00,30.0,28.7,00.0,38.8,31.9,28.6,0000.0,0003.72,0008.70,0003.30
2022-07-08 10:05:00,,0833.4,5.01,0.00,30.0,28.7,00.0,38.8,31.9,28.5,0000.0,0003.70,0008.72,0003.30
2022-07-08 10:06:00,,0833.4,4.99,0.00,30.0,28.8,00.0,38.8,31.9,28.5,0000.0,0003.71,0008.46,0003.30
2022-07-08 10:07:00,,0833.4,5.00,0.00,30.0,28.8,00.0,38.8,31.9,28.4,0000.0,0003.70,0008.37,0003.30
2022-07-08 10:08:00,,0833.4,5.00,0.00,30.0,28.8,00.0,38.8,31.9,28.4,0000.0,0003.68,0008.34,0003.31
2022-07-08 10:09:00,,0833.4,5.02,0.00,30.0,28.9,00.0,38.8,31.9,28.4,0000.0,0003.73,0008.57,0003.31
2022-07-08 10:10:00,,0833.4,5.01,0.00,30.0,28.9,00.0,38.8,32.0,28.4,0000.0,0003.72,0008.91,0003.31
2022-07-08 10:11:00,,0833.5,4.99,0.00,30.1,28.9,00.0,38.9,32.0,28.3,0000.0,0003.73,0008.18,0003.32
2022-07-08 10:12:00,,0833.5,5.01,0.00,30.1,28.9,00.0,38.9,32.0,28.2,0000.0,0003.71,0008.03,0003.32
2022-07-08 10:13:00,,0833.5,5.00,0.00,30.1,28.9,00.0,38.9,32.0,28.1,0000.0,0003.75,0007.55,0003.33
2022-07-08 10:14:00,,0833.5,5.00,0.00,30.1,29.0,00.0,38.9,32.0,28.0,0000.0,0003.79,0007.69,0003.33
2022-07-08 10:15:00,,0833.5,5.00,0.00,30.1,29.0,00.0,38.9,32.0,28.0,0000.0,0003.81,0008.20,0003.34
2022-07-08 10:16:00,,0833.4,5.00,0.00,30.1,29.0,00.0,38.9,32.0,28.0,0000.0,0003.83,0008.32,0003.34
2022-07-08 10:17:00,,0833.4,5.00,0.00,30.2,29.0,00.0,38.9,32.1,27.9,0000.0,0003.85,0008.46,0003.34
2022-07-08 10:18:00,,0833.4,4.99,0.00,30.2,29.0,00.0,38.9,32.1,27.9,0000.0,0003.88,0008.39,0003.35
2022-07-08 10:19:00,,0833.4,5.00,0.00,30.2,29.0,00.0,39.0,32.1,27.9,0000.0,0003.88,0008.35,0003.35
2022-07-08 10:20:00,,0833.4,5.00,0.00,30.2,29.1,00.0,39.0,32.1,27.9,0000.0,0003.86,0008.15,0003.36
2022-07-08 10:21:00,,0833.4,5.00,0.00,30.2,29.1,00.0,39.0,32.1,27.9,0000.0,0003.90,0007.85,0003.36
2022-07-08 10:22:00,,0833.4,5.01,0.00,30.2,29.1,00.0,39.0,32.1,27.9,0000.0,0003.94,0007.94,0003.37
2022-07-08 10:23:00,,0833.4,4.99,0.00,30.2,29.1,00.0,39.0,32.1,27.9,0000.0,0003.95,0007.99,0003.37
2022-07-08 10:24:00,,0833.4,4.99,0.00,30.3,29.1,00.0,39.0,32.2,27.9,0000.0,0003.90,0007.87,0003.37
2022-07-08 10:25:00,,0833.4,5.00,0.00,30.3,29.2,00.0,39.0,32.2,27.9,0000.0,0003.88,0007.80,0003.38
2022-07-08 10:26:00,,0833.4,4.99,0.00,30.3,29.2,00.0,39.1,32.2,27.8,0000.0,0003.86,0007.35,0003.38
2022-07-08 10:27:00,,0833.4,5.01,0.00,30.3,29.2,00.0,39.1,32.2,27.8,0000.0,0003.85,0007.05,0003.38
2022-07-08 10:28:00,,0833.3,4.99,0.00,30.3,29.2,00.0,39.1,32.2,27.9,0000.0,0003.84,0006.74,0003.39
2022-07-08 10:29:00,,0833.3,5.00,0.00,30.3,29.2,00.0,39.1,32.2,27.9,0000.0,0003.83,0006.74,0003.38
2022-07-08 10:30:00,,0833.3,5.01,0.00,30.3,29.2,00.0,39.1,32.2,27.8,0000.0,0003.83,0006.82,0003.39
2022-07-08 10:31:00,,0833.3,5.01,0.00,30.3,29.2,00.0,39.1,32.2,27.9,0000.0,0003.85,0007.00,0003.39
2022-07-08 10:32:00,,0833.3,5.00,0.00,30.3,29.2,00.0,39.1,32.2,27.8,0000.0,0003.85,0007.62,0003.40
2022-07-08 10:33:00,,0833.2,5.00,0.00,30.3,28.4,00.0,39.0,32.1,27.8,0000.0,0003.86,0007.96,0003.41
2022-07-08 10:34:00,,0833.2,4.99,0.00,30.3,27.7,00.0,39.0,32.0,27.8,0000.0,0003.88,0008.67,0003.42
2022-07-08 10:35:00,,0833.2,5.00,0.00,30.2,27.5,00.0,39.0,31.9,28.0,0000.0,0003.87,0008.64,0003.42
2022-07-08 10:36:00,,0833.2,5.00,0.00,30.1,27.5,00.0,38.9,31.7,28.2,0000.0,0003.87,0008.70,0003.42
2022-07-08 10:37:00,,0833.2,5.01,0.00,30.0,27.6,00.0,38.9,31.7,28.3,0000.0,0003.89,0008.81,0003.42
2022-07-08 10:38:00,,0833.2,5.00,0.00,30.0,27.7,00.0,38.9,31.7,28.4,0000.0,0003.87,0008.74,0003.41
2022-07-08 10:39:00,,0833.2,5.00,0.00,30.0,27.9,00.0,38.9,31.7,28.5,0000.0,0003.86,0008.83,0003.42
2022-07-08 10:40:00,,0833.2,4.99,0.00,29.9,28.0,00.0,38.8,31.7,28.4,0000.0,0003.86,0008.88,0003.41
2022-07-08 10:41:00,,0833.1,5.00,0.00,29.9,28.1,00.0,38.8,31.7,28.3,0000.0,0003.84,0008.84,0003.40
2022-07-08 10:42:00,,0833.1,5.00,0.00,29.9,28.2,00.0,38.8,31.7,28.2,0000.0,0003.82,0008.75,0003.39
2022-07-08 10:43:00,,0833.0,5.00,0.00,29.9,28.3,00.0,38.8,31.7,28.3,0000.0,0003.81,0008.44,0003.37
2022-07-08 10:44:00,,0833.0,4.99,0.00,29.9,28.4,00.0,38.8,31.8,28.2,0000.0,0003.76,0007.93,0003.36
2022-07-08 10:45:00,,0833.0,5.00,0.00,29.9,28.4,00.0,38.8,31.8,28.2,0000.0,0003.71,0006.89,0003.34
2022-07-08 10:46:00,,0833.1,5.00,0.00,29.9,28.5,00.0,38.8,31.8,28.1,0000.0,0003.73,0006.94,0003.34
2022-07-08 10:47:00,,0833.0,5.00,0.00,29.9,28.5,00.0,38.8,31.8,28.1,0000.0,0003.75,0007.14,0003.34
2022-07-08 10:48:00,,0832.9,5.00,0.00,30.0,28.6,00.0,38.8,31.8,28.1,0000.0,0003.78,0007.25,0003.34
2022-07-08 10:49:00,,0832.9,5.00,0.00,30.0,28.6,00.0,38.8,31.9,28.2,0000.0,0003.81,0007.28,0003.35
2022-07-08 10:50:00,,0832.9,5.01,0.00,30.0,28.7,00.0,38.8,31.9,28.3,0000.0,0003.83,0007.20,0003.34
2022-07-08 10:51:00,,0832.9,5.00,0.00,30.0,28.7,00.0,38.8,31.9,28.2,0000.0,0003.84,0007.07,0003.35
2022-07-08 10:52:00,,0832.8,5.00,0.00,30.0,28.7,00.0,38.8,31.9,28.1,0000.0,0003.88,0007.48,0003.36
2022-07-08 10:53:00,,0833.0,5.01,0.00,30.0,28.7,00.0,38.8,31.9,28.1,0000.0,0003.90,0007.81,0003.37
2022-07-08 10:54:00,,0833.0,4.99,0.00,30.0,28.8,00.0,38.8,31.9,28.2,0000.0,0003.94,0007.99,0003.39
2022-07-08 10:55:00,,0833.0,5.00,0.00,30.0,28.8,00.0,38.8,31.9,28.2,0000.0,0003.95,0008.11,0003.40
2022-07-08 10:56:00,,0833.0,5.00,0.00,30.0,28.8,00.0,38.8,31.9,28.3,0000.0,0003.97,0008.54,0003.41
2022-07-08 10:57:00,,0833.0,4.99,0.00,30.0,28.8,00.0,38.8,32.0,28.3,0000.0,0004.00,0008.90,0003.41
2022-07-08 10:58:00,,0833.0,5.00,0.00,30.1,28.8,00.0,38.9,32.0,28.3,0000.0,0003.98,0008.90,0003.42
2022-07-08 10:59:00,,0833.0,5.00,0.00,30.1,28.9,00.0,38.9,32.0,28.3,0000.0,0003.96,0009.14,0003.43
